This is the latest recevied weather packets stored in our database for station/object DL1VED. If no packets are shown the sender has not sent any weather packets the latest 10 day(s).
| Time | Temp. | Humidity | Pressure | Rain* | Wind** | Luminosity | Snow |
|---|---|---|---|---|---|---|---|
| 1777921149 | 15° C | 72% | 1012.2 hPa | 0 mm | - | - | - |
| 1777920249 | 15° C | 71% | 1012.2 hPa | 0 mm | - | - | - |
| 1777919349 | 15° C | 71% | 1012.2 hPa | 0 mm | - | - | - |
| 1777918449 | 15° C | 71% | 1012.3 hPa | 0 mm | - | - | - |
| 1777917549 | 15° C | 71% | 1012.3 hPa | 0 mm | - | - | - |
| 1777916649 | 15.56° C | 70% | 1012.3 hPa | 0 mm | - | - | - |
| 1777915749 | 15.56° C | 69% | 1012.7 hPa | 0 mm | - | - | - |
| 1777914849 | 16.11° C | 68% | 1012.6 hPa | 0 mm | - | - | - |
| 1777913949 | 16.11° C | 69% | 1012.6 hPa | 0 mm | - | - | - |
| 1777913049 | 16.11° C | 70% | 1012.7 hPa | 0 mm | - | - | - |
| 1777912181 | 16.11° C | 69% | 1012.6 hPa | 0 mm | - | - | - |
| 1777912149 | 16.11° C | 69% | 1012.6 hPa | 0 mm | - | - | - |
| 1777911249 | 16.67° C | 69% | 1012.7 hPa | 0 mm | - | - | - |
| 1777910349 | 16.11° C | 70% | 1012.7 hPa | 0 mm | - | - | - |
| 1777909449 | 16.11° C | 70% | 1012.7 hPa | 0 mm | - | - | - |
| 1777908549 | 16.67° C | 69% | 1012.7 hPa | 0 mm | - | - | - |
| 1777907649 | 16.67° C | 66% | 1012.8 hPa | 0 mm | - | - | - |
| 1777906749 | 17.22° C | 63% | 1012.8 hPa | 0 mm | - | - | - |
| 1777905849 | 17.78° C | 63% | 1012.8 hPa | 0 mm | - | - | - |
| 1777904949 | 17.78° C | 64% | 1012.9 hPa | 0 mm | - | - | - |
| 1777904049 | 17.22° C | 65% | 1013.1 hPa | 0 mm | - | - | - |
| 1777903149 | 17.22° C | 67% | 1013.3 hPa | 0 mm | - | - | - |
| 1777902249 | 16.67° C | 68% | 1013.4 hPa | 0 mm | - | - | - |
| 1777901349 | 16.67° C | 68% | 1013.3 hPa | 0 mm | - | - | - |
| 1777900449 | 17.22° C | 68% | 1013.5 hPa | 0 mm | - | - | - |
* Rain latest hour (hover to see other rain measurements)
** Current wind speed in m/s (hover to see current wind gust speed)